STARLINK-11734, 64329

Orbit data source: Space-Track

STARLINK-11734, 64329 is a payload satellite owned by SpaceX/Seattle (US) in LEO that was launched on Tue, 10 Jun 2025 UTC via an FALCON 9 launch vehicle from the Air Force Eastern Test Range (AFETR). Payload-class satellites include a variety of spacecraft equipped with specific instruments for various scientific and technological missions. These include communications satellites like Starlink; space stations such as the ISS; scientific satellites like the Hubble; Earth observation satellites from companies like Planet Labs, Umbra, and HawkEye 360; GPS; miniature CubeSats for education and research; and military/defense satellites.

Loading next visibility...
Identifier
64329, 2025-124N
Orbit
LEO
Country
Flag of USUS
Related business
Manufacturer
SpaceX/Seattle
Mission
Operational Commercial Communications
Bus & Motor
STARLINK V2MD, Unknown motor
Mass
960 kg wet, ~910 kg dry
Launch date (UTC)
2025-06-10 (1 year ago)
Launch vehicle
FALCON 9
Launch site
Air Force Eastern Test Range (AFETR)
Object type
Payload
Rocket body
Debris
Shape & HBR
Box + 2 Pan, 18.1 m
Radar Cross Section
36.964 m², Large (>1 m²)

Expand to show TLE details & history
Last TLE update: 14 hours ago

TLE from 14 hours ago
0 STARLINK-11734
1 64329U 25124N   26171.27601235  .00263456  00000-0  19943-2 0  9995
2 64329  43.0042 130.3960 0001307 258.3405 101.7316 15.70815773 58971
Epoch: 2026-06-20T06:37Z
TLE epoch observation values (Epoch: 2026-06-20T06:37:27.467Z)
Latitude
-0°
Longitude
122.53859°
Altitude
356.515 km
Speed
7.697 km/s
True Right ascension
08h 41m 35s
True Declination
0° 00' 00"
Sunlit
Object was in daylight at epoch
Visualization orbit readout
Latitude
Unknown
Longitude
Unknown
Altitude
Unknown
Speed
Unknown
Apparent Right ascension
Unknown
Apparent Declination
Unknown
Sunlit
N/A
Visualization observer readout
Local Sidereal Time
07:21:12
Azimuth
Unknown
Elevation
Unknown
Doppler factor
Unknown
Orbital elements
Apogee altitude
359.426 km
Perigee altitude
357.665 km
Semi-major axis
6,736.682 km
Eccentricity
0.00013
Inclination
43.0042°
RAAN
130.396°
Arg. of periapsis
258.3405°
True anomaly
101.74626°
Mean anomaly
101.7316°
Eccentric anomaly
101.73893°
Mean motion
3.92531 °/min
Orbital period
91.71 mins
BSTAR
0.0019943
Loading maneuver chart data...
Computing Atmospheric mass density...
Loading historical data...
Loading historical data...
Loading historical data...
Loading historical data...
Loading historical data...
Loading historical data...
Loading historical data...

Documentation

Showing up to 5 results
|